Location: Hastringsfeld
(50.9620°N, 10.4787°E)
Time: 03:51:31
(UTC+00:00)

Cosmos 2322 - Pass Details

Date: 26 September 2023
Orbit: 842 x 852 km, 71.0° (Epoch: 29 November)

Event Time Altitude Azimuth Distance (km) Brightness Sun altitude
Rises 04:19:53 0° 327° (NNW) 3,429 6.6 -8.7°
Reaches altitude 10° 04:22:22 10° 324° (NW) 2,488 5.9 -8.3°
Maximum altitude 04:27:57 57° 248° (WSW) 999 3.8 -7.4°
Drops below altitude 10° 04:33:28 10° 171° (S) 2,465 6.2 -6.6°
Sets 04:35:56 0° 167° (SSE) 3,395 6.9 -6.2°
